Simultaneous Nadir Overpasses (SNOs) Predictions

Prediction of SNOs near US between AQUA and NPP Satellite Orbit:

Table of predicted SNOs near US for the next 10.0 days since TLE Epoch: 3/27/2020
Index Date (AQUA) Time (AQUA) AQUA Lat,Lon Date (NPP) Time (NPP) NPP Lat,Lon Distance(km) Time Diff (sec)
1 04/01/2020 07:19:05 49.94, -75.99 04/01/2020 07:19:53 50.34, -78.18 162.49 48
2 04/01/2020 08:57:59 49.88,-100.74 04/01/2020 09:01:21 50.45,-103.51 207.28 202
3 04/03/2020 18:17:14 49.97, -80.19 04/03/2020 18:10:09 49.68, -81.74 115.66 425
4 04/03/2020 19:56:07 49.97,-104.91 04/03/2020 19:51:37 49.57,-107.07 160.91 270
5 04/03/2020 21:31:16 36.61,-124.99 04/03/2020 21:29:15 36.13,-127.55 235.69 121




NCC Satellite Simultaneous Nadir Overpasses (SNOs) Prediction Service
